Location: Detroit
(42.3310°N, 83.0460°W)
Time: 11:41:37
(UTC-04:00)

A-11 Canister half - Visible Passes

Search period start: 25 July 2024 00:00
Search period end: 04 August 2024 00:00
Orbit: 1523 x 1684 km, 47.3° (Epoch: 25 July)

Date Brightness Start Highest point End Pass type
(mag) Time Alt. Az. Time Alt. Az. Time Alt. Az.
25 Jul 10.0 03:41:33 23° S 03:46:22 33° SE 03:54:51 10° ENE visible
25 Jul 9.2 05:40:30 10° WSW 05:50:38 83° SSE 06:00:31 10° ENE visible
26 Jul 10.0 03:20:55 25° SSE 03:24:38 31° SE 03:32:58 10° ENE visible
26 Jul 9.2 05:19:12 12° SW 05:28:50 80° SSE 05:38:44 10° ENE visible
27 Jul 10.0 03:00:14 26° SSE 03:02:55 30° SE 03:11:06 10° ENE visible
27 Jul 9.2 04:58:30 16° SW 05:07:03 78° SSE 05:16:58 10° ENE visible
28 Jul 10.0 02:39:30 27° SE 02:41:12 28° SE 02:49:12 10° ENE visible
28 Jul 9.2 04:37:47 21° SW 04:45:16 76° SSE 04:55:11 10° ENE visible
29 Jul 10.1 02:18:45 26° SE 02:19:29 27° SE 02:27:17 10° ENE visible
29 Jul 9.2 04:17:01 26° SW 04:23:29 73° SSE 04:33:24 10° ENE visible
30 Jul 10.1 01:57:56 25° SE 01:57:56 25° SE 02:05:22 10° ENE visible
30 Jul 9.1 03:56:12 31° SW 04:01:42 71° SSE 04:11:36 10° ENE visible
31 Jul 10.2 01:37:05 23° ESE 01:37:05 23° ESE 01:43:25 10° E visible
31 Jul 9.1 03:35:21 37° SW 03:39:55 68° SE 03:49:49 10° ENE visible
31 Jul 9.4 05:35:08 10° W 05:45:17 71° NNW 05:55:09 10° ENE visible
01 Aug 10.3 01:16:13 21° ESE 01:16:13 21° ESE 01:21:26 10° E visible
01 Aug 9.1 03:14:28 43° SSW 03:18:08 66° SE 03:28:01 10° ENE visible
01 Aug 9.4 05:13:17 10° W 05:23:26 72° NNW 05:33:22 10° ENE visible
02 Aug 10.5 00:55:17 19° ESE 00:55:17 19° ESE 00:59:27 10° E visible
02 Aug 9.1 02:53:32 48° SSW 02:56:22 63° SE 03:06:14 10° ENE visible
02 Aug 9.3 04:51:48 11° W 05:01:36 73° NNW 05:11:33 10° ENE visible
03 Aug 10.6 00:34:19 16° ESE 00:34:19 16° ESE 00:37:25 10° E visible
03 Aug 9.1 02:32:34 53° S 02:34:35 61° SE 02:44:26 10° ENE visible
03 Aug 9.3 04:30:49 15° W 04:39:46 74° NNW 04:49:46 10° ENE visible
